EN

Hourly Weather Lagvoschi

Today, 25 July, Sunday

Time Temperature Precipitation Wind Pressure Humidity
00:00 +21°C° 0 mm 1 mps 750 mmHg 67%
01:00 +21°C° 0 mm 1 mps 750 mmHg 70%
02:00 +20°C° 0 mm 1 mps 751 mmHg 73%
03:00 +20°C° 0 mm 1 mps 751 mmHg 75%
04:00 +17°C° 0 mm 0 mps 751 mmHg 77%
05:00 +17°C° 0 mm 0 mps 751 mmHg 79%
06:00 +19°C° 0 mm 0 mps 751 mmHg 73%
07:00 +21°C° 0 mm 0 mps 751 mmHg 66%
08:00 +23°C° 0 mm 0 mps 751 mmHg 59%
09:00 +24°C° 0 mm 0 mps 751 mmHg 53%
10:00 +28°C° 0 mm 1 mps 751 mmHg 47%
11:00 +29°C° 0 mm 1 mps 752 mmHg 40%
12:00 +28°C° 0 mm 1 mps 752 mmHg 44%
13:00 +28°C° 0 mm 2 mps 751 mmHg 48%
14:00 +27°C° 0 mm 2 mps 751 mmHg 51%
15:00 +26°C° 0 mm 2 mps 751 mmHg 53%
16:00 +26°C° 0 mm 1 mps 751 mmHg 54%
17:00 +25°C° 0 mm 1 mps 751 mmHg 55%
18:00 +24°C° 0 mm 1 mps 752 mmHg 58%
19:00 +24°C° 0 mm 1 mps 752 mmHg 61%
20:00 +23°C° 0 mm 2 mps 752 mmHg 64%
21:00 +21°C° 0 mm 2 mps 752 mmHg 67%
22:00 +20°C° 0 mm 2 mps 752 mmHg 69%
23:00 +19°C° 0 mm 2 mps 752 mmHg 71%

Tomorrow, 26 July, Monday

Time Temperature Precipitation Wind Pressure Humidity
00:00 +19°C° 0 mm 2 mps 752 mmHg 73%
01:00 +19°C° 0 mm 2 mps 752 mmHg 75%
02:00 +18°C° 0 mm 2 mps 752 mmHg 77%
03:00 +18°C° 0 mm 2 mps 752 mmHg 78%
04:00 +18°C° 0 mm 2 mps 752 mmHg 79%
05:00 +17°C° 0 mm 2 mps 752 mmHg 81%
06:00 +19°C° 0 mm 2 mps 753 mmHg 73%
07:00 +21°C° 0 mm 2 mps 753 mmHg 65%
08:00 +24°C° 0 mm 3 mps 753 mmHg 58%
09:00 +26°C° 0 mm 3 mps 753 mmHg 51%
10:00 +28°C° 0 mm 3 mps 753 mmHg 45%
11:00 +29°C° 0 mm 4 mps 753 mmHg 39%
12:00 +30°C° 0 mm 4 mps 752 mmHg 37%
13:00 +30°C° 0 mm 4 mps 752 mmHg 34%
14:00 +32°C° 0 mm 4 mps 752 mmHg 32%
15:00 +30°C° 0 mm 4 mps 752 mmHg 34%
16:00 +30°C° 0 mm 4 mps 752 mmHg 36%
17:00 +29°C° 0 mm 4 mps 751 mmHg 39%
18:00 +27°C° 0 mm 3 mps 752 mmHg 47%
19:00 +26°C° 0 mm 3 mps 752 mmHg 55%
20:00 +24°C° 0 mm 3 mps 752 mmHg 64%
21:00 +24°C° 0 mm 3 mps 752 mmHg 64%
22:00 +22°C° 0 mm 3 mps 752 mmHg 64%
23:00 +22°C° 0 mm 3 mps 752 mmHg 64%

Day after tomorrow, 27 July, Tuesday

Time Temperature Precipitation Wind Pressure Humidity
00:00 +22°C° 0 mm 3 mps 752 mmHg 65%
01:00 +22°C° 0 mm 3 mps 752 mmHg 66%
02:00 +21°C° 0 mm 3 mps 751 mmHg 66%
03:00 +21°C° 0 mm 3 mps 751 mmHg 68%
04:00 +20°C° 0 mm 4 mps 751 mmHg 70%
05:00 +20°C° 0 mm 4 mps 751 mmHg 72%
06:00 +22°C° 0 mm 4 mps 751 mmHg 66%
07:00 +23°C° 0 mm 5 mps 751 mmHg 60%
08:00 +26°C° 0 mm 5 mps 751 mmHg 54%
09:00 +28°C° 0 mm 5 mps 750 mmHg 48%
10:00 +30°C° 0 mm 6 mps 750 mmHg 43%
11:00 +32°C° 0 mm 6 mps 750 mmHg 37%
12:00 +30°C° 0.2 mm 5 mps 750 mmHg 43%
13:00 +29°C° 0.2 mm 3 mps 749 mmHg 48%
14:00 +28°C° 0.2 mm 2 mps 749 mmHg 54%
15:00 +28°C° 0.4 mm 3 mps 748 mmHg 57%
16:00 +28°C° 0.4 mm 4 mps 748 mmHg 60%
17:00 +28°C° 0.4 mm 4 mps 747 mmHg 63%
18:00 +26°C° 5.3 mm 4 mps 747 mmHg 73%
19:00 +24°C° 5.3 mm 3 mps 747 mmHg 83%
20:00 +22°C° 5.3 mm 3 mps 747 mmHg 93%
21:00 +21°C° 3.7 mm 3 mps 747 mmHg 94%
22:00 +21°C° 3.7 mm 3 mps 748 mmHg 95%
23:00 +21°C° 3.7 mm 3 mps 748 mmHg 97%

28 July, Wednesday

Time Temperature Precipitation Wind Pressure Humidity
00:00 +20°C° 0.1 mm 3 mps 748 mmHg 97%
01:00 +20°C° 0.1 mm 2 mps 748 mmHg 98%
02:00 +20°C° 0.1 mm 2 mps 747 mmHg 98%
03:00 +20°C° 0 mm 2 mps 748 mmHg 98%
04:00 +19°C° 0 mm 2 mps 748 mmHg 97%
05:00 +19°C° 0 mm 3 mps 748 mmHg 97%
06:00 +20°C° 0 mm 3 mps 748 mmHg 91%
07:00 +21°C° 0 mm 3 mps 748 mmHg 86%
08:00 +22°C° 0 mm 3 mps 749 mmHg 81%
09:00 +25°C° 0 mm 3 mps 749 mmHg 73%
10:00 +26°C° 0 mm 3 mps 749 mmHg 65%
11:00 +28°C° 0 mm 3 mps 749 mmHg 56%
12:00 +29°C° 0 mm 4 mps 749 mmHg 53%
13:00 +30°C° 0 mm 4 mps 748 mmHg 50%
14:00 +30°C° 0 mm 4 mps 748 mmHg 46%
15:00 +30°C° 0 mm 4 mps 748 mmHg 48%
16:00 +30°C° 0 mm 4 mps 748 mmHg 50%
17:00 +29°C° 0 mm 3 mps 748 mmHg 52%
18:00 +28°C° 0 mm 3 mps 748 mmHg 59%
19:00 +26°C° 0 mm 2 mps 748 mmHg 66%
20:00 +24°C° 0 mm 1 mps 748 mmHg 72%
21:00 +23°C° 0 mm 1 mps 748 mmHg 74%
22:00 +23°C° 0 mm 1 mps 748 mmHg 76%
23:00 +22°C° 0 mm 1 mps 748 mmHg 78%

29 July, Thursday

Time Temperature Precipitation Wind Pressure Humidity
00:00 +22°C° 0 mm 1 mps 748 mmHg 78%
01:00 +22°C° 0 mm 1 mps 748 mmHg 78%
02:00 +21°C° 0 mm 1 mps 748 mmHg 78%
03:00 +21°C° 0 mm 1 mps 748 mmHg 78%
04:00 +21°C° 0 mm 1 mps 748 mmHg 79%
05:00 +21°C° 0 mm 1 mps 748 mmHg 79%
06:00 +23°C° 0 mm 1 mps 748 mmHg 73%
07:00 +24°C° 0 mm 1 mps 748 mmHg 67%
08:00 +26°C° 0 mm 1 mps 748 mmHg 61%
09:00 +28°C° 0 mm 1 mps 748 mmHg 56%
10:00 +30°C° 0 mm 1 mps 748 mmHg 51%
11:00 +31°C° 0 mm 1 mps 748 mmHg 46%
12:00 +32°C° 0 mm 1 mps 748 mmHg 43%
13:00 +33°C° 0 mm 1 mps 747 mmHg 41%
14:00 +33°C° 0 mm 1 mps 747 mmHg 38%
15:00 +33°C° 0 mm 1 mps 747 mmHg 41%
16:00 +32°C° 0 mm 1 mps 747 mmHg 45%
17:00 +31°C° 0 mm 2 mps 746 mmHg 48%
18:00 +30°C° 0 mm 1 mps 747 mmHg 53%
19:00 +29°C° 0 mm 1 mps 747 mmHg 58%
20:00 +27°C° 0 mm 1 mps 747 mmHg 63%
21:00 +26°C° 0 mm 1 mps 747 mmHg 65%
22:00 +25°C° 0 mm 1 mps 747 mmHg 68%
23:00 +25°C° 0 mm 1 mps 747 mmHg 70%

30 July, Friday

Time Temperature Precipitation Wind Pressure Humidity
00:00 +24°C° 0 mm 2 mps 747 mmHg 72%
01:00 +24°C° 0 mm 2 mps 747 mmHg 74%
02:00 +23°C° 0 mm 2 mps 747 mmHg 76%
03:00 +21°C° 0 mm 2 mps 747 mmHg 80%
04:00 +21°C° 0 mm 2 mps 748 mmHg 84%
05:00 +20°C° 0 mm 2 mps 748 mmHg 88%
06:00 +23°C° 0 mm 2 mps 748 mmHg 81%
07:00 +24°C° 0 mm 2 mps 748 mmHg 75%
08:00 +26°C° 0 mm 2 mps 748 mmHg 68%
09:00 +27°C° 0 mm 2 mps 748 mmHg 62%
10:00 +29°C° 0 mm 2 mps 748 mmHg 55%
11:00 +30°C° 0 mm 2 mps 748 mmHg 49%
12:00 +31°C° 0 mm 2 mps 748 mmHg 46%
13:00 +31°C° 0 mm 2 mps 748 mmHg 43%
14:00 +32°C° 0 mm 1 mps 748 mmHg 40%
15:00 +32°C° 0 mm 1 mps 747 mmHg 40%
16:00 +32°C° 0 mm 1 mps 747 mmHg 41%
17:00 +32°C° 0 mm 1 mps 747 mmHg 41%
18:00 +30°C° 0 mm 1 mps 747 mmHg 48%
19:00 +28°C° 0 mm 1 mps 746 mmHg 54%
20:00 +26°C° 0 mm 1 mps 746 mmHg 61%
21:00 +25°C° 0.1 mm 1 mps 746 mmHg 63%
22:00 +24°C° 0.1 mm 2 mps 746 mmHg 66%
23:00 +24°C° 0.1 mm 2 mps 746 mmHg 68%
Show more